When you browse on this site, cookies collect data to enhance your experience and personalize the content and advertising you see.
Visit our Privacy Policy to learn more. By continuing to use the site, you agree to this use of cookies and data.
  • în România
  • Lista ţărilor
  • Pe 7 zile
  • Temperatura apei
  • Meteo pe hartă
  • Widget-uri
  • user-avatar
    Intrare

    Meteo pe oră la Bucureşti

    Astăzi, 2 Aprilie, Joi

    Timp Temperatura Precipitaţii Vânt Presiune Umiditate
    00:00 +2°C° 0 mm 2 m/s 758 mmHg 53%
    01:00 +1°C° 0 mm 2 m/s 757 mmHg 53%
    02:00 +1°C° 0 mm 2 m/s 757 mmHg 54%
    03:00 +1°C° 0 mm 2 m/s 757 mmHg 54%
    04:00 -1°C° 0 mm 2 m/s 756 mmHg 54%
    05:00 -1°C° 0 mm 2 m/s 756 mmHg 53%
    06:00 +1°C° 0 mm 2 m/s 756 mmHg 49%
    07:00 +2°C° 0 mm 2 m/s 756 mmHg 45%
    08:00 +4°C° 0 mm 2 m/s 756 mmHg 41%
    09:00 +5°C° 0 mm 2 m/s 756 mmHg 37%
    10:00 +6°C° 0 mm 2 m/s 756 mmHg 33%
    11:00 +8°C° 0 mm 2 m/s 755 mmHg 29%
    12:00 +9°C° 0 mm 2 m/s 755 mmHg 28%
    13:00 +10°C° 0 mm 2 m/s 755 mmHg 28%
    14:00 +12°C° 0 mm 1 m/s 755 mmHg 27%
    15:00 +12°C° 0 mm 1 m/s 754 mmHg 28%
    16:00 +12°C° 0 mm 1 m/s 753 mmHg 28%
    17:00 +12°C° 0 mm 1 m/s 753 mmHg 28%
    18:00 +10°C° 0 mm 1 m/s 753 mmHg 32%
    19:00 +9°C° 0 mm 1 m/s 754 mmHg 35%
    20:00 +8°C° 0 mm 1 m/s 754 mmHg 38%
    21:00 +7°C° 0 mm 1 m/s 754 mmHg 43%
    22:00 +6°C° 0 mm 2 m/s 754 mmHg 48%
    23:00 +5°C° 0 mm 2 m/s 754 mmHg 52%

    Mâine, 3 Aprilie, Vineri

    Timp Temperatura Precipitaţii Vânt Presiune Umiditate
    00:00 +5°C° 0 mm 1 m/s 754 mmHg 54%
    01:00 +5°C° 0 mm 1 m/s 754 mmHg 56%
    02:00 +5°C° 0 mm 1 m/s 754 mmHg 58%
    03:00 +5°C° 0 mm 1 m/s 754 mmHg 57%
    04:00 +4°C° 0 mm 1 m/s 753 mmHg 56%
    05:00 +4°C° 0 mm 1 m/s 753 mmHg 55%
    06:00 +5°C° 0 mm 1 m/s 753 mmHg 53%
    07:00 +5°C° 0 mm 2 m/s 753 mmHg 50%
    08:00 +7°C° 0 mm 2 m/s 753 mmHg 47%
    09:00 +8°C° 0 mm 2 m/s 753 mmHg 44%
    10:00 +10°C° 0 mm 2 m/s 753 mmHg 41%
    11:00 +11°C° 0 mm 3 m/s 753 mmHg 38%
    12:00 +12°C° 0 mm 3 m/s 753 mmHg 38%
    13:00 +13°C° 0 mm 3 m/s 752 mmHg 37%
    14:00 +14°C° 0 mm 3 m/s 752 mmHg 37%
    15:00 +14°C° 0 mm 3 m/s 752 mmHg 37%
    16:00 +14°C° 0 mm 3 m/s 752 mmHg 38%
    17:00 +16°C° 0 mm 2 m/s 751 mmHg 39%
    18:00 +14°C° 0 mm 2 m/s 752 mmHg 43%
    19:00 +13°C° 0 mm 2 m/s 752 mmHg 48%
    20:00 +11°C° 0 mm 1 m/s 753 mmHg 52%
    21:00 +11°C° 0 mm 1 m/s 753 mmHg 54%
    22:00 +10°C° 0 mm 1 m/s 754 mmHg 56%
    23:00 +10°C° 0 mm 1 m/s 754 mmHg 58%

    Poimâine, 4 Aprilie, Sâmbătă

    Timp Temperatura Precipitaţii Vânt Presiune Umiditate
    00:00 +9°C° 0 mm 1 m/s 754 mmHg 59%
    01:00 +8°C° 0 mm 0 m/s 754 mmHg 61%
    02:00 +7°C° 0 mm 0 m/s 754 mmHg 63%
    03:00 +7°C° 0 mm 0 m/s 755 mmHg 64%
    04:00 +7°C° 0 mm 0 m/s 755 mmHg 65%
    05:00 +7°C° 0 mm 0 m/s 755 mmHg 66%
    06:00 +9°C° 0 mm 1 m/s 755 mmHg 64%
    07:00 +9°C° 0 mm 2 m/s 756 mmHg 62%
    08:00 +9°C° 0 mm 2 m/s 756 mmHg 60%
    09:00 +11°C° 0 mm 3 m/s 756 mmHg 55%
    10:00 +12°C° 0 mm 4 m/s 756 mmHg 51%
    11:00 +14°C° 0 mm 5 m/s 756 mmHg 46%
    12:00 +15°C° 0 mm 5 m/s 757 mmHg 45%
    13:00 +16°C° 0 mm 5 m/s 757 mmHg 43%
    14:00 +16°C° 0 mm 5 m/s 757 mmHg 42%
    15:00 +16°C° 0 mm 5 m/s 757 mmHg 43%
    16:00 +17°C° 0 mm 4 m/s 757 mmHg 43%
    17:00 +17°C° 0 mm 4 m/s 757 mmHg 44%
    18:00 +14°C° 0 mm 4 m/s 757 mmHg 49%
    19:00 +13°C° 0 mm 4 m/s 758 mmHg 55%
    20:00 +12°C° 0 mm 4 m/s 759 mmHg 60%
    21:00 +11°C° 0 mm 3 m/s 759 mmHg 62%
    22:00 +11°C° 0 mm 3 m/s 760 mmHg 64%
    23:00 +10°C° 0 mm 3 m/s 760 mmHg 65%

    5 Aprilie, Duminică

    Timp Temperatura Precipitaţii Vânt Presiune Umiditate
    00:00 +8°C° 0 mm 4 m/s 761 mmHg 66%
    01:00 +8°C° 0 mm 4 m/s 761 mmHg 67%
    02:00 +7°C° 0 mm 5 m/s 761 mmHg 67%
    03:00 +7°C° 0 mm 6 m/s 762 mmHg 68%
    04:00 +6°C° 0 mm 7 m/s 762 mmHg 68%
    05:00 +6°C° 0 mm 8 m/s 762 mmHg 69%
    06:00 +7°C° 0 mm 8 m/s 763 mmHg 66%
    07:00 +8°C° 0 mm 9 m/s 763 mmHg 62%
    08:00 +8°C° 0 mm 10 m/s 763 mmHg 59%
    09:00 +9°C° 0 mm 10 m/s 764 mmHg 52%
    10:00 +11°C° 0 mm 10 m/s 764 mmHg 44%
    11:00 +12°C° 0 mm 10 m/s 764 mmHg 36%
    12:00 +12°C° 0 mm 10 m/s 764 mmHg 33%
    13:00 +13°C° 0 mm 10 m/s 763 mmHg 30%
    14:00 +13°C° 0 mm 10 m/s 763 mmHg 27%
    15:00 +13°C° 0 mm 10 m/s 763 mmHg 27%
    16:00 +12°C° 0 mm 10 m/s 763 mmHg 28%
    17:00 +12°C° 0 mm 9 m/s 763 mmHg 28%
    18:00 +11°C° 0 mm 8 m/s 764 mmHg 31%
    19:00 +10°C° 0 mm 7 m/s 764 mmHg 33%
    20:00 +8°C° 0 mm 6 m/s 765 mmHg 35%
    21:00 +8°C° 0 mm 6 m/s 766 mmHg 37%
    22:00 +7°C° 0 mm 6 m/s 766 mmHg 39%
    23:00 +7°C° 0 mm 6 m/s 767 mmHg 40%

    6 Aprilie, Luni

    Timp Temperatura Precipitaţii Vânt Presiune Umiditate
    00:00 +5°C° 0 mm 7 m/s 767 mmHg 42%
    01:00 +5°C° 0 mm 7 m/s 767 mmHg 43%
    02:00 +5°C° 0 mm 7 m/s 767 mmHg 44%
    03:00 +4°C° 0 mm 8 m/s 767 mmHg 44%
    04:00 +2°C° 0 mm 8 m/s 768 mmHg 44%
    05:00 +2°C° 0 mm 8 m/s 768 mmHg 44%
    06:00 +2°C° 0 mm 8 m/s 769 mmHg 43%
    07:00 +2°C° 0 mm 9 m/s 769 mmHg 41%
    08:00 +3°C° 0 mm 10 m/s 769 mmHg 40%
    09:00 +5°C° 0 mm 9 m/s 769 mmHg 38%
    10:00 +7°C° 0 mm 9 m/s 769 mmHg 36%
    11:00 +8°C° 0 mm 9 m/s 769 mmHg 34%
    12:00 +10°C° 0 mm 9 m/s 769 mmHg 32%
    13:00 +11°C° 0 mm 9 m/s 769 mmHg 30%
    14:00 +12°C° 0 mm 9 m/s 769 mmHg 29%
    15:00 +12°C° 0 mm 9 m/s 769 mmHg 28%
    16:00 +11°C° 0 mm 8 m/s 769 mmHg 28%
    17:00 +11°C° 0 mm 8 m/s 769 mmHg 28%
    18:00 +9°C° 0 mm 7 m/s 769 mmHg 31%
    19:00 +8°C° 0 mm 6 m/s 770 mmHg 33%
    20:00 +6°C° 0 mm 5 m/s 770 mmHg 36%
    21:00 +5°C° 0 mm 5 m/s 770 mmHg 38%
    22:00 +3°C° 0 mm 5 m/s 771 mmHg 39%
    23:00 +4°C° 0 mm 4 m/s 771 mmHg 41%

    7 Aprilie, Marţi

    Timp Temperatura Precipitaţii Vânt Presiune Umiditate
    00:00 +3°C° 0 mm 4 m/s 771 mmHg 41%
    01:00 +3°C° 0 mm 4 m/s 771 mmHg 42%
    02:00 +3°C° 0 mm 4 m/s 771 mmHg 42%
    03:00 +1°C° 0 mm 4 m/s 771 mmHg 44%
    04:00 +1°C° 0 mm 4 m/s 771 mmHg 46%
    05:00 +1°C° 0 mm 4 m/s 772 mmHg 47%
    06:00 +3°C° 0 mm 4 m/s 771 mmHg 47%
    07:00 +3°C° 0 mm 5 m/s 771 mmHg 46%
    08:00 +6°C° 0 mm 5 m/s 771 mmHg 45%
    09:00 +7°C° 0 mm 5 m/s 771 mmHg 42%
    10:00 +9°C° 0 mm 5 m/s 771 mmHg 40%
    11:00 +12°C° 0 mm 5 m/s 770 mmHg 37%
    12:00 +13°C° 0 mm 5 m/s 770 mmHg 36%
    13:00 +13°C° 0 mm 5 m/s 770 mmHg 35%
    14:00 +14°C° 0 mm 5 m/s 769 mmHg 34%
    15:00 +14°C° 0 mm 5 m/s 769 mmHg 34%
    16:00 +14°C° 0 mm 5 m/s 769 mmHg 34%
    17:00 +14°C° 0 mm 5 m/s 768 mmHg 34%
    18:00 +12°C° 0 mm 4 m/s 768 mmHg 38%
    19:00 +11°C° 0 mm 3 m/s 768 mmHg 43%
    20:00 +9°C° 0 mm 3 m/s 769 mmHg 47%
    21:00 +8°C° 0 mm 2 m/s 769 mmHg 49%
    22:00 +7°C° 0 mm 2 m/s 769 mmHg 51%
    23:00 +7°C° 0 mm 1 m/s 769 mmHg 54%
    Arată mai mult